CW5102 Weather Reports


time (UTC)temp
F
wind
direction
speed
knots
gust
knots
rain 1hr
in
rain 24hr
in
rain mn
in
humidity
%
barometer
mb
20260504173703 62 346 1.7 17.4 0.00 0.00 0.00 32 998.8
20260504173204 62 355 5.2 18.2 0.00 0.00 0.00 31 998.7
20260504172703 62 334 1.7 18.2 0.00 0.00 0.00 32 998.8
20260504172203 62 351 5.2 20.0 0.00 0.00 0.00 32 998.8
20260504171704 62 351 1.7 20.0 0.00 0.00 0.00 36 998.7
20260504171203 62 20 2.6 17.4 0.00 0.00 0.00 34 998.7
20260504170703 62 15 2.6 15.6 0.00 0.00 0.00 37 998.5
20260504170203 61 303 1.7 14.8 0.00 0.00 0.00 39 998.5
20260504160203 60 344 4.3 11.3 0.00 0.00 0.00 37 998.2
20260504150703 59 315 2.6 14.8 0.00 0.00 0.00 39 997.9
20260504150203 59 5 5.2 14.8 0.00 0.00 0.00 37 997.9
20260504141203 58 12 7.0 20.0 0.00 0.00 0.00 36 997.8
20260504140204 58 11 6.1 18.2 0.00 0.00 0.00 37 997.7
20260504130703 58 16 2.6 14.8 0.00 0.00 0.00 44 996.9
20260504130203 58 355 4.3 10.4 0.00 0.00 0.00 45 996.8
20260504120203 57 319 2.6 12.2 0.00 0.00 0.00 43 996.1
20260504110704 54 324 4.3 11.3 0.00 0.00 0.00 45 995.4
20260504110203 54 271 1.7 7.8 0.00 0.00 0.00 46 995.4
20260504081702 53 263 1.7 7.0 0.00 0.00 0.00 44 997.5
20260504081202 53 307 0.9 6.1 0.00 0.00 0.00 44 997.6
20260504080702 54 323 0.9 6.1 0.00 0.00 0.00 43 997.6
20260504080202 54 225 1.7 7.0 0.00 0.00 0.00 43 997.8
20260504070203 55 233 0.9 6.1 0.00 0.00 0.00 40 998.7
20260504060202 56 293 1.7 5.2 0.00 0.00 0.00 37 1000.0
20260504050703 56 204 0.9 5.2 0.00 0.00 0.00 38 1001.0
20260504050203 56 210 0.9 4.3 0.00 0.00 0.00 39 1001.1
20260504045703 57 208 0.9 4.3 0.00 0.00 0.00 39 1001.2
20260504045203 57 204 0.9 2.6 0.00 0.00 0.00 38 1001.3
20260504044703 57 203 0.9 2.6 0.00 0.00 0.00 38 1001.4
20260504044203 57 211 0.0 2.6 0.00 0.00 0.00 38 1001.4
20260504043203 57 201 0.0 2.6 0.00 0.00 0.00 37 1001.7
20260504042703 57 235 0.9 2.6 0.00 0.00 0.00 36 1001.7
20260504042204 57 280 0.0 2.6 0.00 0.00 0.00 37 1001.8
20260504041202 57 204 0.0 1.7 0.00 0.00 0.00 36 1001.9
20260504040703 57 307 0.0 1.7 0.00 0.00 0.00 36 1002.0
20260504040203 57 317 0.0 0.0 0.00 0.00 0.00 36 1002.2
20260504035702 57 317 0.0 0.9 0.00 0.00 0.00 35 1002.3
20260504034703 57 317 0.0 2.6 0.00 0.00 0.00 35 1002.5
20260504034202 57 317 0.0 2.6 0.00 0.00 0.00 35 1002.6
20260504033703 57 317 0.0 2.6 0.00 0.00 0.00 35 1002.7
20260504033203 58 317 0.0 0.0 0.00 0.00 0.00 35 1002.8
20260504032702 58 317 0.0 0.0 0.00 0.00 0.00 34 1002.9
20260504032202 58 317 0.0 0.9 0.00 0.00 0.00 35 1003.0
20260504031703 58 317 0.0 0.9 0.00 0.00 0.00 34 1003.0
20260504031202 58 317 0.0 2.6 0.00 0.00 0.00 35 1003.0
20260504030703 58 317 0.0 2.6 0.00 0.00 0.00 35 1003.1
20260504030204 58 317 0.0 0.9 0.00 0.00 0.00 34 1003.0
20260504025703 58 317 0.0 0.0 0.00 0.00 0.00 33 1003.1
20260504025202 58 317 0.0 0.0 0.00 0.00 0.00 34 1003.1
20260504024203 58 317 0.0 0.0 0.00 0.00 0.00 33 1003.1
20260504022203 59 317 0.0 0.0 0.00 0.00 0.00 33 1003.3
20260504021703 60 317 0.0 0.0 0.00 0.00 0.00 32 1003.3
20260504021203 60 317 0.0 0.0 0.00 0.00 0.00 30 1003.4
20260504020703 60 317 0.0 0.0 0.00 0.00 0.00 30 1003.4
20260504020203 61 317 0.0 0.0 0.00 0.00 0.00 29 1003.4
20260504015203 61 317 0.0 1.7 0.00 0.00 0.00 28 1003.5
20260504014703 61 317 0.0 1.7 0.00 0.00 0.00 28 1003.4
20260504013703 62 317 0.0 2.6 0.00 0.00 0.00 28 1003.5
20260504013204 63 317 0.0 5.2 0.00 0.00 0.00 28 1003.6
20260504012703 63 358 0.9 5.2 0.00 0.00 0.00 28 1003.6
20260504012203 63 283 0.0 6.1 0.00 0.00 0.00 27 1003.6
20260504011703 64 301 0.9 6.1 0.00 0.00 0.00 27 1003.7
20260504011203 64 307 0.9 6.1 0.00 0.00 0.00 26 1003.6
20260504010703 64 273 0.9 4.3 0.00 0.00 0.00 27 1003.6
20260504010203 65 0 0.9 4.3 0.00 0.00 0.00 27 1003.6
20260504005703 65 0 0.0 4.3 0.00 0.00 0.00 26 1003.7
20260504005203 65 334 0.0 2.6 0.00 0.00 0.00 26 1003.7
20260504004703 65 241 0.0 1.7 0.00 0.00 0.00 25 1003.7
20260504004203 65 240 0.0 2.6 0.00 0.00 0.00 25 1003.7
20260504003703 66 246 0.0 2.6 0.00 0.00 0.00 24 1003.7
20260504003203 66 0 0.0 2.6 0.00 0.00 0.00 24 1003.8
20260504002703 66 0 0.0 2.6 0.00 0.00 0.00 23 1003.8
20260504001703 66 239 0.0 6.1 0.00 0.00 0.00 24 1003.8
20260504001203 66 290 0.9 6.1 0.00 0.00 0.00 23 1003.8
20260504000703 67 355 0.9 6.1 0.00 0.00 0.00 22 1003.9
20260504000204 67 229 0.9 6.1 0.00 0.00 0.00 23 1003.8
20260503235704 67 341 0.0 2.6 0.00 0.00 0.00 23 1003.9
20260503235204 67 260 0.0 4.3 0.00 0.00 0.00 23 1003.9
20260503234202 68 20 0.9 5.2 0.00 0.00 0.00 22 1003.9
20260503233702 68 303 0.0 5.2 0.00 0.00 0.00 22 1003.8
20260503233203 68 334 1.7 8.7 0.00 0.00 0.00 24 1003.8
20260503232203 68 11 0.0 8.7 0.00 0.00 0.00 21 1003.9
20260503231704 68 6 2.6 8.7 0.00 0.00 0.00 19 1003.9
20260503231203 68 18 1.7 7.0 0.00 0.00 0.00 20 1004.1
20260503230703 68 227 0.9 7.8 0.00 0.00 0.00 21 1004.2
20260503230203 68 12 0.9 7.8 0.00 0.00 0.00 21 1004.2
20260503225702 68 25 0.9 7.8 0.00 0.00 0.00 21 1004.2
20260503224702 68 355 1.7 10.4 0.00 0.00 0.00 19 1004.3
20260503224203 68 357 1.7 10.4 0.00 0.00 0.00 20 1004.4
20260503223703 69 348 0.9 10.4 0.00 0.00 0.00 19 1004.4
20260503223203 69 354 1.7 10.4 0.00 0.00 0.00 20 1004.4
20260503222703 69 357 1.7 10.4 0.00 0.00 0.00 20 1004.4
20260503222203 69 324 2.6 10.4 0.00 0.00 0.00 21 1004.4
20260503221703 69 318 1.7 10.4 0.00 0.00 0.00 20 1004.4
20260503221203 69 1 0.9 10.4 0.00 0.00 0.00 21 1004.4
20260503220703 69 19 0.0 5.2 0.00 0.00 0.00 21 1004.4
20260503220203 69 3 0.9 7.0 0.00 0.00 0.00 19 1004.5
20260503215703 69 12 1.7 10.4 0.00 0.00 0.00 18 1004.6
20260503215203 70 22 3.5 10.4 0.00 0.00 0.00 18 1004.6
20260503214203 70 14 2.6 8.7 0.00 0.00 0.00 17 1004.7
20260503213703 70 147 0.9 10.4 0.00 0.00 0.00 20 1004.7
20260503213203 70 353 2.6 10.4 0.00 0.00 0.00 18 1004.8
20260503212703 70 7 2.6 10.4 0.00 0.00 0.00 18 1004.7
20260503212203 70 37 4.3 13.0 0.00 0.00 0.00 17 1004.7
20260503211203 71 18 2.6 12.2 0.00 0.00 0.00 19 1004.9
20260503210703 71 340 0.9 11.3 0.00 0.00 0.00 20 1004.8
20260503210203 70 336 1.7 11.3 0.00 0.00 0.00 21 1004.9
20260503205203 70 315 3.5 10.4 0.00 0.00 0.00 21 1005.1
20260503204704 70 12 3.5 11.3 0.00 0.00 0.00 20 1005.1
20260503203203 70 14 0.9 17.4 0.00 0.00 0.00 22 1005.3
20260503202703 70 317 0.9 10.4 0.00 0.00 0.00 22 1005.2
20260503202203 70 2 0.9 10.4 0.00 0.00 0.00 22 1005.2
20260503201703 70 22 1.7 10.4 0.00 0.00 0.00 23 1005.3
20260503201203 71 4 4.3 10.4 0.00 0.00 0.00 23 1005.3
20260503200703 71 349 2.6 8.7 0.00 0.00 0.00 24 1005.5
20260503200203 70 0 0.0 11.3 0.00 0.00 0.00 24 1005.4
20260503195203 70 26 2.6 11.3 0.00 0.00 0.00 24 1005.5
20260503194703 70 343 0.9 10.4 0.00 0.00 0.00 26 1005.6
20260503194203 70 23 1.7 12.2 0.00 0.00 0.00 26 1005.6
20260503193703 70 26 1.7 12.2 0.00 0.00 0.00 24 1005.7
20260503192703 69 136 0.9 11.3 0.00 0.00 0.00 25 1005.8
20260503191704 69 20 4.3 11.3 0.00 0.00 0.00 23 1005.9
20260503190703 68 21 2.6 13.9 0.00 0.00 0.00 23 1005.9
20260503190203 68 17 4.3 13.9 0.00 0.00 0.00 23 1005.8
20260503185703 68 24 1.7 10.4 0.00 0.00 0.00 24 1005.8
20260503184703 68 64 3.5 13.9 0.00 0.00 0.00 21 1006.0
20260503184202 68 6 5.2 13.9 0.00 0.00 0.00 23 1005.9
20260503183703 67 49 0.9 11.3 0.00 0.00 0.00 24 1006.0
20260503183203 67 44 2.6 11.3 0.00 0.00 0.00 25 1006.1
20260503182704 67 11 2.6 11.3 0.00 0.00 0.00 25 1006.1
20260503182203 67 42 1.7 12.2 0.00 0.00 0.00 25 1006.1
20260503181703 67 27 1.7 13.9 0.00 0.00 0.00 27 1006.2
20260503180703 67 5 4.3 12.2 0.00 0.00 0.00 27 1006.2
20260503180203 67 359 1.7 12.2 0.00 0.00 0.00 32 1006.3
20260503175203 67 346 3.5 13.9 0.00 0.00 0.00 31 1006.3
20260503174703 66 1 4.3 11.3 0.00 0.00 0.00 32 1006.3
20260503174203 66 36 2.6 10.4 0.00 0.00 0.00 33 1006.3